Weather History for EHBK - November, 2012

Change the Weather History Date:

Saturday, November 17, 2012

  Actual Average Record
Temperature  
Mean Temperature 40 °F -  
Max Temperature 48 °F 44 °F - ()
Min Temperature 31 °F 35 °F - ()
Degree Days  
Heating Degree Days 26    
Moisture  
Dew Point 39 °F    
Average Humidity 87    
Maximum Humidity 100    
Minimum Humidity 56    
Precipitation  
Precipitation 0.00 in 0.09 in - ()
Sea Level Pressure  
Sea Level Pressure 29.84 in    
Wind  
Wind Speed 5 mph ()    
Max Wind Speed 13 mph    
Max Gust Speed -    
Visibility 5.7 miles    
Events      
T = Trace of Precipitation, MM = Missing Value Source: Averaged Metar Reports

Daily Weather History Graph

Daily Weather History Graph

Search for Another Location

Airport or City:

Trip Planner

Search our weather history database for the weather conditions in past years. The results will help you decide how hot, cold, wet, or windy it might be!

Date:

Astronomy

Nov. 17, 2012 Rise Set
Actual Time 7:56 AM CET 4:46 PM CET
Civil Twilight 7:19 AM CET 5:23 PM CET
Nautical Twilight 6:39 AM CET 6:03 PM CET
Astronomical Twilight 6:00 AM CET 6:42 PM CET
Moon 11:30 AM CET (11/17) 8:37 PM CET (11/17)
Length of Visible Light 10h 03m
Length of Day
8h 50m
Waxing Crescent, 18% of the Moon is Illuminated
Nov 17
Waxing Crescent
Nov 20
First Quarter
Nov 28
Full
Dec 6
Last Quarter
Dec 13
New

Hourly Weather History & Observations

Time (CET) Temp. Windchill Dew Point Humidity Pressure Visibility Wind Dir Wind Speed Gust Speed Precip Events Conditions
12:25 AM 33.8 °F - 32.0 °F 93% 29.92 in 3.7 mi SSE 2.3 mph - N/A   Unknown
12:55 AM 33.8 °F 29.6 °F 32.0 °F 93% 29.92 in 3.1 mi SSE 4.6 mph - N/A   Mist
1:00 AM 34 °F - 32 °F 91% 29.94 in 4 mi South 4.5 mph - -   Mist
1:25 AM 35.6 °F - 33.8 °F 93% 29.92 in 4.3 mi Variable 2.3 mph - N/A   Unknown
1:55 AM 33.8 °F - 30.2 °F 87% 29.89 in 3.7 mi Variable 2.3 mph - N/A   Unknown
2:25 AM 33.8 °F - 32.0 °F 93% 29.89 in 3.7 mi ESE 2.3 mph - N/A   Unknown
2:55 AM 33.8 °F - 32.0 °F 93% 29.89 in 4.3 mi SW 1.2 mph - N/A   Unknown
3:25 AM 32.0 °F - 32.0 °F 100% 29.89 in 3.7 mi SSW 2.3 mph - N/A   Unknown
3:55 AM 32.0 °F 28.7 °F 30.2 °F 93% 29.89 in 3.7 mi SSE 3.5 mph - N/A   Unknown
4:00 AM 31 °F - 30 °F 96% 29.90 in 3 mi SE 4.5 mph - -   Mist
4:25 AM 33.8 °F 29.6 °F 32.0 °F 93% 29.86 in 4.3 mi SSE 4.6 mph - N/A   Unknown
4:55 AM 35.6 °F 30.7 °F 32.0 °F 87% 29.86 in 5.6 mi SSE 5.8 mph - N/A   Unknown
5:25 AM 33.8 °F 27.7 °F 30.2 °F 87% 29.83 in 5.6 mi SSE 6.9 mph - N/A   Unknown
5:55 AM 41.0 °F 35.8 °F 28.4 °F 61% 29.83 in 6.2 mi SSE 8.1 mph - N/A   Unknown
6:25 AM 41.0 °F 36.4 °F 30.2 °F 65% 29.83 in 6.2 mi SSE 6.9 mph - N/A   Unknown
6:55 AM 41.0 °F 37.1 °F 30.2 °F 65% 29.83 in 6.2 mi SE 5.8 mph - N/A   Unknown
7:00 AM 42 °F - 32 °F 56% 29.86 in 14 mi SE 6.7 mph - -   Partly Cloudy
7:25 AM 41.0 °F 36.4 °F 32.0 °F 70% 29.83 in 6.2 mi SSE 6.9 mph - N/A   Unknown
7:55 AM 35.6 °F 31.7 °F 30.2 °F 81% 29.83 in 6.2 mi SW 4.6 mph - N/A   Unknown
8:25 AM 37.4 °F 33.8 °F 32.0 °F 81% 29.83 in 6.2 mi SW 4.6 mph - N/A   Unknown
8:55 AM 37.4 °F 32.8 °F 33.8 °F 87% 29.83 in 6.2 mi SW 5.8 mph - N/A   Unknown
9:25 AM 39.2 °F 35.0 °F 35.6 °F 87% 29.83 in 6.2 mi South 5.8 mph - N/A   Unknown
9:55 AM 39.2 °F 35.9 °F 35.6 °F 87% 29.83 in 6.2 mi South 4.6 mph - N/A   Unknown
10:00 AM 41 °F - 37 °F 79% 29.87 in 9 mi SW 4.5 mph - -  
10:25 AM 42.8 °F 41.1 °F 37.4 °F 81% 29.83 in 6.2 mi WSW 3.5 mph - N/A   Unknown
10:55 AM 42.8 °F 40.1 °F 39.2 °F 87% 29.86 in 6.2 mi WSW 4.6 mph - N/A   Unknown
11:25 AM 46.4 °F 41.1 °F 41.0 °F 81% 29.83 in 6.2 mi SW 11.5 mph - N/A   Unknown
11:55 AM 46.4 °F 41.1 °F 41.0 °F 81% 29.83 in 6.2 mi SSW 11.5 mph - N/A   Unknown
12:25 PM 48.2 °F - 41.0 °F 76% 29.83 in 6.2 mi SSW 12.7 mph - N/A   Overcast
12:55 PM 48.2 °F - 41.0 °F 76% 29.83 in 6.2 mi South 11.5 mph - N/A   Overcast
1:00 PM 48 °F - 42 °F 71% 29.85 in 17 mi South 8.9 mph - -   Partly Cloudy
1:25 PM 48.2 °F - 42.8 °F 82% 29.83 in 6.2 mi SSW 9.2 mph - N/A   Overcast
1:55 PM 48.2 °F - 42.8 °F 82% 29.83 in 6.2 mi SSW 9.2 mph - N/A   Overcast
2:25 PM 48.2 °F - 42.8 °F 82% 29.80 in 6.2 mi South 9.2 mph - N/A   Overcast
2:55 PM 48.2 °F - 42.8 °F 82% 29.80 in 6.2 mi South 9.2 mph - N/A   Overcast
3:25 PM 48.2 °F - 42.8 °F 82% 29.80 in 6.2 mi South 9.2 mph - N/A   Overcast
3:55 PM 48.2 °F - 44.6 °F 87% 29.80 in 6.2 mi SSW 10.4 mph - N/A   Overcast
4:00 PM 48 °F - 44 °F 82% 29.84 in 10 mi SSW 6.7 mph - -   Overcast
4:25 PM 48.2 °F - 44.6 °F 87% 29.80 in 6.2 mi SW 6.9 mph - N/A   Overcast
4:55 PM 48.2 °F - 44.6 °F 87% 29.80 in 6.2 mi SSW 8.1 mph - N/A   Overcast
5:25 PM 48.2 °F - 44.6 °F 87% 29.80 in 6.2 mi SW 6.9 mph - N/A   Overcast
5:55 PM 48.2 °F - 46.4 °F 93% 29.80 in 6.2 mi WSW 6.9 mph - N/A   Overcast
6:25 PM 48.2 °F - 46.4 °F 93% 29.80 in 6.2 mi SW 11.5 mph - N/A   Overcast
6:55 PM 48.2 °F - 46.4 °F 93% 29.83 in 5.6 mi SW 10.4 mph - N/A   Mostly Cloudy
7:00 PM 47 °F - 46 °F 94% 29.84 in 4 mi SW 11.2 mph - -   Mist
7:25 PM 46.4 °F 41.9 °F 46.4 °F 100% 29.83 in 4.3 mi SW 9.2 mph - N/A   Mostly Cloudy
7:55 PM 46.4 °F 42.9 °F 46.4 °F 100% 29.83 in 3.1 mi SW 6.9 mph - N/A   Overcast
8:25 PM 46.4 °F 43.5 °F 46.4 °F 100% 29.83 in 3.7 mi WSW 5.8 mph - N/A   Overcast
8:55 PM 46.4 °F 43.5 °F 46.4 °F 100% 29.83 in - WSW 5.8 mph - N/A   Overcast
9:25 PM 46.4 °F 43.5 °F 46.4 °F 100% 29.83 in - WSW 5.8 mph - N/A   Mostly Cloudy
9:55 PM 46.4 °F 43.5 °F 46.4 °F 100% 29.83 in 3.1 mi WSW 5.8 mph - N/A   Overcast
10:00 PM 46 °F - 46 °F 100% 29.86 in 3 mi SW 6.7 mph - -   Mist
10:25 PM 46.4 °F 42.4 °F 46.4 °F 100% 29.83 in 5.0 mi SW 8.1 mph - N/A   Mostly Cloudy
10:55 PM 46.4 °F 42.4 °F 46.4 °F 100% 29.83 in 4.3 mi SW 8.1 mph - N/A   Overcast
11:25 PM 46.4 °F 42.4 °F 46.4 °F 100% 29.83 in 4.3 mi SW 8.1 mph - N/A   Overcast
11:55 PM 46.4 °F 42.9 °F 46.4 °F 100% 29.83 in 5.0 mi SSW 6.9 mph - N/A   Mostly Cloudy